Location: Unspecified
(0.0000°N, 0.0000°E)
Time: 23:56:25
(UTC+00:00)

Transit 2A - All Passes

Search period start: 08 December 2016 00:00
Search period end: 18 December 2016 00:00
Orbit: 597 x 963 km, 66.7° (Epoch: 07 December)

Date Brightness Start Highest point End Pass type
(mag) Time Alt. Az. Time Alt. Az. Time Alt. Az.
08 Dec - 05:27:31 10° S 05:32:59 31° ESE 05:38:24 10° NE visible
08 Dec - 07:10:54 10° SW 07:16:00 25° WNW 07:21:02 10° NNW daylight
08 Dec - 18:03:00 10° NNW 18:07:17 74° ENE 18:11:39 10° SSE daylight
09 Dec - 04:54:37 10° SSE 04:59:00 19° ESE 05:03:21 10° ENE visible
09 Dec - 06:36:10 10° SW 06:42:02 40° WNW 06:47:50 10° N daylight
09 Dec - 17:29:22 10° N 17:33:22 38° ENE 17:37:25 10° SE daylight
10 Dec - 04:22:56 10° SE 04:25:00 12° ESE 04:27:02 10° E visible
10 Dec - 06:01:49 10° SSW 06:08:06 63° WNW 06:14:16 10° N daylight
10 Dec - 16:56:11 10° NNE 16:59:26 21° ENE 17:02:42 10° ESE daylight
10 Dec - 18:39:55 10° WNW 18:42:17 14° WSW 18:44:42 10° SW visible
11 Dec - 05:27:46 10° SSW 05:34:09 84° ESE 05:40:25 10° NNE visible
11 Dec - 16:24:09 10° NE 16:25:29 11° ENE 16:26:48 10° E daylight
11 Dec - 18:04:43 10° NW 18:08:19 26° WSW 18:12:00 10° SSW daylight
12 Dec - 04:54:01 10° S 05:00:11 54° ESE 05:06:16 10° NE visible
12 Dec - 06:40:07 10° W 06:43:12 14° WNW 06:46:14 10° NW daylight
12 Dec - 17:30:13 10° NW 17:34:22 48° WSW 17:38:37 10° S daylight
13 Dec - 04:20:33 10° S 04:26:13 34° ESE 04:31:49 10° NE visible
13 Dec - 06:04:25 10° WSW 06:09:13 23° WNW 06:13:57 10° NNW daylight
13 Dec - 16:56:08 10° NNW 17:00:25 87° ENE 17:04:49 10° SSE daylight
14 Dec - 03:47:31 10° SSE 03:52:15 22° ESE 03:56:54 10° ENE visible
14 Dec - 05:29:33 10° SW 05:35:17 35° WNW 05:40:53 10° N visible
14 Dec - 16:22:24 10° N 16:26:30 44° ENE 16:30:40 10° SE daylight
15 Dec - 03:15:21 10° SE 03:18:14 13° ESE 03:21:06 10° E visible
15 Dec - 04:55:07 10° SSW 05:01:20 56° WNW 05:07:24 10° N visible
15 Dec - 15:49:04 10° NNE 15:52:34 24° ENE 15:56:06 10° SE daylight
15 Dec - 17:33:35 10° W 17:35:27 12° WSW 17:37:20 10° SW daylight
16 Dec - 04:21:00 10° SSW 04:27:23 87° WNW 04:33:37 10° NNE visible
16 Dec - 15:16:34 10° NE 15:18:37 13° ENE 15:20:42 10° E daylight
16 Dec - 16:58:04 10° WNW 17:01:27 23° WSW 17:04:57 10° SSW daylight
17 Dec - 03:47:10 10° S 03:53:26 60° ESE 03:59:33 10° NNE visible
17 Dec - 05:34:08 10° W 05:36:25 12° WNW 05:38:41 10° NW visible
17 Dec - 16:23:26 10° NW 16:27:29 41° WSW 16:31:41 10° S daylight
